{"data":{"norad_id":63280,"intl_designator":"2025-053R","name":"STARLINK-33646","alt_names":[],"object_type":"PAYLOAD","status":"ACTIVE","operator":null,"country":"US","launch_date":"2025-03-15","launch_site_code":"AFETR","launch_vehicle":null,"mission":null,"orbit_class":"UNKNOWN","rcs_meters":null,"size_class":null,"mass_kg":null,"dimensions":null,"purposes":["comms"],"wikipedia_slug":null,"has_3d_model":false,"image_url":null,"decayed_at":null,"tle_current":{"epoch":"2026-09-20T22:02:16.985760Z","epoch_age_seconds":122749,"freshness":"FRESH","line1":"1 63280U 25053R   26263.91825215  .00011055  00000+0  41054-3 0  9994","line2":"2 63280  42.9964 219.0102 0000246 304.7813  55.3015 15.27588513 86051","mean_motion":15.27588513,"eccentricity":2.46e-5,"inclination_deg":42.9964,"raan_deg":219.0102,"arg_perigee_deg":304.7813,"mean_anomaly_deg":55.3015,"bstar":0.00041054,"rev_number":8605,"period_min":94.266223380537,"perigee_km":482.85482062261,"apogee_km":483.19238972439,"semimajor_km":6861.1606051735,"source":"CELESTRAK","updated_at":"2026-09-21T09:00:34.965130Z"}}}